Погода в Киренске

Погода в Киренске : погода сейчас, прогноз погоды и архив. Всё, что Вы хотите узнать о погоде в Киренске!

Хотите узнать прогноз погоды в Киренске? Тогда Вам сюда: Погода в Киренске

Поиск расширенной информации на нашем сайте:

Другие новости

Новости СМИ2

Главная страница сайта

Новости сайта

03.07.2017

Напоминаем, что на нашем специализированном сайте Метеоцентр.Азия вы можете получить высокодетализированные автоматические прогнозы погоды по пунктам России, СНГ и мира в авиационном формате (включающие направление и скорость ветра, видимость, явления погоды, количество и форму облачности, нижнюю и верхнюю границу облачности).


Погода в Киренске - сегодня

Время (UTC), дата Ветер
(°,м/с) 
Видим.   Явления Облачность Т
(°С)
Тd
(°С)
f(%) Тe
(°С)
Pmin
(гПа)
dP
(гПа)
Po
(мм)
O2
(г/м3)
Тmin Tmax R s Состояние
почвы
03 22.05.18 320 (СЗ) 10 км  слаб. ливневой дождь  10/10 600 м кучево-дожд. 
[Cb cap]
+5.1 +3.2 88 +6  997.7  -2.2  725  286           
06 22.05.18 110 (В) 20000 м  {ливн. осадки}  10/5 600 м кучево-дожд., средняя 
[Cb cap|Ac As]
+7.3 +3.8 78 +8  995.5  -1.9  724  283           
09 22.05.18 120 (ЮВ) 20000 м  в посл. час ливневой дождь  10/4 600 м кучево-дожд., средняя 
[Cb cap|Ac As]
+8.5 +4.2 74 +8  993.6  -1.8  722  282           
12 22.05.18 070 (В) 20000 м  {ливн. осадки}  10/8 600 м кучево-дожд., средняя 
[Cb cap|Ac As]
+7.2 +3.3 76 +7  993.1  -0.5  722  283    +8.8     
15 22.05.18 110 (В) н/о    10/10 600 м кучево-дожд. 
[Cb cap]
+5.3 +3.3 87 +6  991.9  -1.4  721  284           
18 22.05.18 200 (Ю) н/о    10/6 600 м кучево-дожд., средняя, верхняя 
[Cb cap|Ac lent|Ci fib]
+3.4 +2.5 94 +4  991.5  -0.6  720  286           
21 22.05.18 тихо ()   20000 м  местами туман поземный  10/3 1000 м средняя, верхняя 
[Sc diur, vesp|Ac lent|Ci fib]
+3.3 +2.6 95 +3  991  -0.5  720  286           
00 23.05.18 тихо ()   2000 м  туман местами  10/10 600 м кучево-дожд. 
[Cb cap]
+4.9 +3.6 91 +5  990.8  720  284  +3.2        влажная 
03 23.05.18 080 (В) 20000 м    10/8 600 м кучево-дожд., верхняя 
[Cb cap|Cs]
+8.7 +3.2 68 +9  989.4  -0.9  719  280           
06 23.05.18 200 (Ю) 20000 м    10/10 600 м кучево-дожд. 
[Cb cap|Ac As]
+11.4 +3.6 59 +11  988.3  -0.8  719  277           
09 23.05.18 060 (СВ) 10 км  слаб. ливневой дождь  10/9 600 м кучево-дожд., средняя 
[Cb cap|Ac As]
+7.5 +6.1 91 +8  990.4  1.6  720  281           
12 23.05.18 100 (В) 10 км  слаб. ливневой дождь  10/10 600 м кучево-дожд. 
[Cb cap|Ac As]
+5.3 +3.3 87 +4  993.2  2.5  722  285    +12     
15 23.05.18 210 (ЮЗ) н/о  слаб. ливневой дождь  10/8 600 м кучево-дожд., средняя 
[Cb cap|Ac As]
+4.4 +3.5 94 +5  994.5  1.1  723  286           
18 23.05.18 тихо ()   н/о  {ливн. осадки}  10/6 600 м кучево-дожд., средняя 
[Cb cap|Ac As]
+4.4 +3.6 95 +4  995.2  0.7  723  286           
21 23.05.18 150 (ЮВ) 20000 м    10/3 600 м кучево-дожд., средняя, верхняя 
[Cb cap|Ac trans|Ci fib]
+4.3 +3.5 95 +5  997  1.7  724  287           
00 24.05.18 210 (ЮЗ) 20000 м    9/8 600 м кучево-дожд., средняя 
[Cb cap|Ac und]
+7.8 +5.6 86 +7  998.9  2.2  726  283  +4.1      влажная 
03 24.05.18 190 (Ю) 20000 м    10/8 600 м кучево-дожд., средняя, верхняя 
[Cb cap|Ac trans|Ci fib]
+12.3 +3.9 56 +12  1000.4  1.9  728  280           
06 24.05.18 190 (Ю) 20000 м    10/8 600 м кучево-дожд., средняя, верхняя 
[Cb cap|Ac trans|Ci fib]
+15.2 +0.7 37 +15  1001.6  1.5  729  278           
09 24.05.18 210 (ЮЗ) 20000 м    10/9 600 м кучево-дожд., средняя, верхняя 
[Cb cap|Ac trans|Ci fib]
+15.2 +0.6 37 +15  1003.4  1.8  730  278           
12 24.05.18 тихо ()   20000 м    10/4 600 м средняя, верхняя 
[Sc diur, vesp|Ac trans|Ci fib]
+14 +2.6 46 +14  1005.9  2.3  732  280    +16.7       
15 24.05.18 320 (СЗ) н/о    10/3 600 м средняя, верхняя 
[Sc diur, vesp|Ac trans|Ci fib]
+8.5 +4.7 77 +10  1009.2  2.6  734  286           
18 24.05.18 тихо ()   н/о    10/3 600 м средняя, верхняя 
[Sc diur, vesp|Ac trans|Ci fib]
+7.4 +4.3 81 +7  1010.9  1.5  735  288           
21 24.05.18 тихо ()   20000 м  слаб. ливневой дождь  10/8 600 м кучево-дожд., средняя 
[Cb cap|Ac As]
+6.7 +4.4 85 +7  1012.3  1.3  736  289           
00 25.05.18 310 (СЗ) 20000 м  слаб. ливневой дождь  10/10 600 м кучево-дожд. 
[Cb cap]
+6.8 +5.4 91 +8  1014.7  2.4  738  289  +6.6      влажная 
03 25.05.18 360 (С) 10 км  слаб. ливневой дождь  10/8 600 м кучево-дожд., средняя 
[Cb cap|Ac As]
+7.7 +5.5 86 +7  1013.6  -1  737  288           
Время (UTC), дата Ветер
(°,м/с) 
Видим.   Явления Облачность Т
(°С)
Тd
(°С)
f(%) Тe
(°С)
Pmin
(гПа)
dP
(гПа)
Po
(мм)
O2
(г/м3)
Тmin Tmax R s Состояние
почвы

Для получения пояснительной информации подведите курсор к названию столбца.

ПОГОДА в Киренске - архив

Всё, что Вы хотите узнать о погоде в Киренске - удобно и подробно!

Выберите нужную дату (начиная с 1 января 2015* года) и нажмите кнопку "Найти".
Будут отображены архивные сводки погоды по пункту Киренск, начиная с указанной даты.


Отображать данные в формате CSV (для использования в таблицах Excel)


Внимание! Наш архив погоды предназначен исключительно для личного некоммерческого использования в познавательных целях. Если Вам необходимы официальные справки о состоянии погоды (для производственных, юридических, коммерческих и т.п. целей), обращайтесь в органы Росгидромета.

*Примечание: данная дата относится к архиву по метеостанциям СССР (Россия, СНГ, Балтия).
Архив по метеостанциям Зарубежной Европы и Азии (кроме Китая) хранится 10 дней, по другим регионам земного шара (Китай, Африка, Америка, Австралия, Океания) - 1 день.

Киренск - район местоположения метеостанции


Название, широта, долгота, высота метеостанции:
Киренск 57.8°ш. 108.1°д. 259 м над ур. моря [Российская Федерация]

Дополнительная информация

В oтличие oт бoльшинства пoгoдных сайтoв мы публикуем пoдрoбную метеoинфoрмацию в детальнoм прoфессиoнальнoм фoрмате.

Характеристики температуры и влажнoсти вoздуха измеряются на высoте 2 м в тени вдали oт зданий и деревьев.
Скoрoсть ветра измеряется на высoте 10 м (на урoвне рoста челoвека скoрoсть ветра ниже в 1.5-2 раза). Если метеoстанция нахoдится в гoрoде или в лесу, тo скoрoсть ветра занижена на 2-4 м/с пo сравнению с oткрытым местoм. Скoрoсть ветра над акватoриями крупных рек и oзёр, а также на вершинах хoлмoв на 2-5 м/с выше, чем в oбычных услoвиях.
Атмoсфернoе давление в разных тoчках местнoсти мoжет значительнo oтличаться oт давления на метеoстанции, в зависимoсти oт услoвий рельефа (при пoдъёме на 10 м давление пoнижается примернo на 1 мм рт.ст.).